Lapse_Rate
4.8 4.9 5.3 6.0 6.1 6.4 6.8 6.7 7.0 7.0 6.9 6.6 6.5 6.2 5.5 5.6 5.7 6.1 6.3 6.3 6.2 6.1 6.1 6.1 6.6 6.8 6.8 6.8 6.7 6.8 6.8 6.5 5.8 5.6 5.9 5.9 5.8 5.7 5.7 6.2 5.5 5.1 5.2 6.9
4.9 4.7 5.2 5.9 6.1 6.2 6.5 6.7 6.7 6.8 6.8 6.8 6.7 6.3 6.3 6.0 6.0 6.3 6.3 6.2 6.1 6.2 6.0 6.1 6.2 6.4 6.7 6.7 6.7 6.8 6.8 6.6 5.7 5.4 5.4 5.4 5.5 5.8 5.7 5.7 5.7 5.5 6.4 7.1
4.8 4.9 5.1 5.5 6.0 6.1 6.4 6.4 6.7 6.6 6.6 6.6 6.6 6.4 6.3 6.2 6.2 6.2 6.2 6.1 5.9 5.9 5.9 6.1 6.2 6.2 6.2 6.3 6.5 6.7 6.7 6.8 6.7 6.8 6.3 6.1 5.6 5.9 5.6 5.3 5.3 5.9 6.0 6.4
5.0 4.9 4.9 5.4 5.7 6.0 6.3 6.2 6.3 6.6 6.7 6.7 6.5 6.4 6.4 6.4 6.4 6.3 6.3 6.3 6.4 6.2 6.0 6.0 6.1 6.1 6.2 6.2 6.5 6.4 6.3 6.3 6.3 6.2 6.1 6.0 5.8 5.7 5.7 5.5 5.5 5.6 5.9 6.4
5.0 4.9 4.9 5.1 5.4 5.9 5.9 6.2 6.1 6.3 6.4 6.5 6.5 6.4 6.3 6.3 6.3 6.2 6.2 6.3 6.3 6.2 6.1 6.1 6.1 6.1 6.0 6.3 6.2 5.9 5.8 5.9 5.9 5.8 5.9 5.9 5.9 5.8 5.6 5.6 5.4 5.5 5.7 6.3
4.9 4.7 4.8 4.9 5.1 5.4 5.8 5.8 5.9 6.0 6.1 6.1 6.3 6.3 6.2 6.1 6.1 6.2 6.2 6.1 6.1 6.1 6.0 6.0 6.0 5.8 5.8 6.0 6.0 6.1 5.6 5.6 5.7 5.7 5.7 5.5 5.7 6.5 6.2 6.2 6.1 6.1 5.6 6.1
5.3 4.7 4.5 4.5 4.8 5.0 5.5 5.5 5.7 5.8 6.0 5.9 6.1 6.2 6.3 6.1 6.0 6.0 5.9 5.9 5.9 6.0 6.0 5.9 5.9 5.8 5.7 5.9 5.8 5.6 5.5 5.4 5.4 5.3 5.4 5.8 6.2 6.1 6.1 6.0 5.8 6.0 5.9 5.9
5.1 4.9 4.4 4.3 4.7 4.7 5.0 5.3 5.3 5.5 5.7 5.7 5.8 6.0 6.2 6.2 6.1 6.0 5.9 5.8 5.7 5.8 5.8 5.8 5.7 5.6 5.7 5.5 5.6 5.5 5.4 5.5 5.4 5.2 5.3 5.7 6.2 6.1 6.0 6.1 6.1 5.9 6.0 5.9
5.1 4.5 4.5 4.2 4.9 4.9 4.8 4.8 5.1 5.2 5.5 5.7 5.6 5.7 5.9 6.0 6.1 6.1 6.0 5.8 5.7 5.6 5.7 5.8 5.9 6.3 6.0 5.7 5.6 5.5 5.4 5.3 5.2 4.7 4.9 5.8 5.7 6.0 5.9 5.9 5.7 5.6 5.8 6.0
5.0 4.4 4.3 4.6 4.8 4.9 4.7 4.7 4.5 4.9 5.0 5.3 5.5 5.4 5.4 5.6 5.6 5.8 6.0 5.9 5.7 5.5 5.6 5.8 5.9 6.0 6.1 5.9 5.4 5.3 5.2 5.3 5.1 5.1 5.0 5.4 5.9 5.8 5.6 5.6 5.9 5.7 5.9 5.8
4.9 5.0 4.6 4.6 4.8 4.7 4.5 4.6 4.5 4.4 4.9 4.9 5.4 5.3 5.4 5.2 5.2 5.4 5.8 5.7 5.5 5.7 5.6 5.6 5.8 5.8 5.9 5.9 5.8 5.6 5.5 5.3 5.2 5.0 5.0 5.2 5.9 5.6 5.6 5.8 5.8 5.8 5.9 5.8
5.1 4.9 4.4 4.2 4.0 4.4 4.5 4.5 4.2 4.0 4.2 4.7 5.0 5.4 5.3 5.4 5.0 5.1 5.1 5.6 5.9 5.9 5.8 5.9 5.8 5.9 5.9 5.8 6.0 6.0 5.7 6.1 5.7 5.8 5.7 6.0 5.8 5.8 5.7 5.9 5.9 5.9 5.9 5.9
4.9 4.5 4.2 3.9 3.8 4.0 4.2 4.2 4.0 3.9 4.4 5.0 4.9 5.3 5.6 5.6 5.5 5.1 4.9 5.2 5.5 5.8 5.7 5.8 5.9 5.9 6.0 5.8 5.7 6.0 6.1 6.1 6.0 6.2 6.5 6.2 5.9 5.7 6.0 6.0 6.0 6.0 5.9 6.1
4.7 4.4 4.3 4.2 4.0 4.0 4.1 4.0 3.7 3.4 3.7 4.6 5.2 5.2 5.1 5.3 5.0 5.2 4.9 5.2 5.4 5.7 5.8 5.8 5.8 6.0 6.1 6.0 6.0 6.0 6.0 6.0 6.1 6.2 6.3 6.2 6.1 5.9 5.9 6.1 5.9 5.9 6.0 6.1
4.9 4.7 4.4 4.3 4.0 4.0 3.7 3.6 3.6 3.5 3.5 4.3 5.3 5.0 5.0 5.2 5.1 5.0 5.0 5.3 5.8 5.5 5.8 5.7 5.9 6.1 6.2 6.1 6.0 6.1 6.4 6.4 6.2 6.1 6.4 6.1 6.1 6.0 6.0 6.0 6.0 6.0 6.0 6.1
4.9 4.7 4.5 4.1 4.0 3.8 3.5 3.7 3.8 3.6 3.8 4.3 5.2 4.8 4.5 4.9 4.5 4.2 4.6 5.8 6.9 6.7 6.2 5.9 6.0 6.4 6.2 6.1 6.0 6.9 6.7 6.4 6.3 6.1 6.2 6.0 5.8 5.7 5.8 5.8 6.0 6.1 6.1 6.1
5.0 4.6 4.5 4.1 4.2 4.0 3.7 3.4 3.5 3.7 3.8 4.3 5.1 5.2 5.1 4.9 4.6 5.0 5.4 6.1 6.7 7.1 6.7 6.9 6.6 6.4 6.1 6.0 6.4 7.0 6.5 6.4 6.4 6.3 6.2 6.2 5.9 5.7 5.7 5.9 6.0 6.1 6.0 6.0
5.0 4.7 4.4 4.2 4.2 4.1 3.9 3.7 4.2 4.2 4.5 4.7 5.4 5.6 5.9 5.8 5.9 5.8 6.9 6.5 6.9 6.9 6.9 6.6 6.8 6.7 6.1 6.0 7.3 7.0 6.8 6.9 6.9 6.6 6.2 6.1 6.0 6.0 5.7 5.6 5.6 5.5 5.4 5.5
5.0 4.6 4.7 4.6 4.4 4.1 3.9 4.8 4.8 4.9 4.8 5.3 5.7 6.2 6.0 6.3 6.5 6.6 6.7 6.8 6.9 6.8 6.5 6.7 6.6 6.3 6.4 7.2 7.2 7.1 7.0 7.0 6.8 6.7 6.3 5.9 6.0 6.0 5.7 5.6 5.5 5.3 5.2 5.2
5.2 4.7 4.8 4.7 4.5 4.4 4.8 5.1 5.2 5.2 5.3 5.5 6.0 6.2 6.4 6.2 6.8 6.7 6.8 6.8 6.9 6.7 6.7 6.6 6.5 6.9 7.5 7.1 6.7 6.7 6.6 6.6 6.4 6.2 6.0 6.0 6.1 6.2 6.0 5.9 5.7 5.6 5.2 5.1
5.2 4.9 4.7 4.8 4.8 4.9 5.4 5.4 5.3 5.4 5.7 5.8 6.1 6.1 6.1 6.3 6.5 6.7 6.7 6.7 6.8 6.7 6.7 6.4 6.4 7.4 7.3 7.0 6.8 6.9 6.8 6.0 6.1 6.2 6.0 5.8 5.8 5.6 5.5 5.5 5.9 5.8 5.6 5.0
5.3 5.0 4.8 5.1 5.0 5.2 5.7 5.4 5.3 5.6 5.7 5.9 6.2 6.2 6.2 6.3 6.5 6.6 6.7 6.7 6.6 6.4 6.5 6.3 6.7 7.4 7.2 7.1 7.0 6.9 6.6 6.4 6.3 6.0 6.0 5.8 5.8 5.7 5.7 5.9 6.0 6.0 5.8 5.5
5.3 4.9 4.9 5.1 5.1 5.3 5.9 5.8 5.7 5.8 5.8 5.8 6.0 6.1 6.1 6.2 6.4 6.4 6.5 6.5 6.4 6.3 6.3 6.6 7.1 7.2 7.1 7.1 7.0 6.6 6.4 6.4 6.3 6.3 6.3 6.2 6.1 6.0 6.0 6.1 6.1 6.1 6.0 5.8
5.3 4.8 4.9 5.1 5.1 5.3 5.8 6.3 5.8 5.9 5.8 5.9 5.9 5.9 6.1 6.3 6.3 6.3 6.3 6.3 6.4 6.1 6.1 6.7 7.2 7.2 7.1 7.0 6.8 6.6 6.4 6.5 6.6 6.3 6.2 6.2 6.1 6.1 6.0 6.0 6.0 6.0 6.0 5.9
5.2 5.1 5.2 5.3 5.4 5.5 5.6 5.9 5.9 5.9 5.9 6.0 6.0 6.0 5.9 6.1 6.1 6.2 6.2 6.0 5.8 6.0 6.1 6.7 6.8 6.8 6.8 6.7 6.7 6.6 6.5 6.6 6.5 6.3 6.2 6.2 6.2 6.3 6.3 6.3 6.4 6.4 6.4 6.4
5.1 5.5 5.7 5.5 5.4 5.4 5.6 5.7 5.9 5.9 6.0 6.0 6.0 6.1 6.1 6.2 6.1 5.9 5.8 5.8 6.3 6.7 6.6 6.5 6.7 6.8 6.4 6.5 6.5 6.6 6.6 6.4 6.3 6.3 6.2 6.2 6.3 6.4 6.6 6.6 6.7 6.6 6.6 6.5
5.6 5.9 6.0 5.9 5.8 5.7 5.6 5.3 5.2 5.4 5.8 5.9 6.0 6.0 6.1 5.9 5.9 5.9 5.8 6.4 7.0 6.8 6.6 6.8 6.9 6.1 6.1 6.2 6.4 6.3 6.4 6.4 6.4 6.5 6.6 6.6 6.6 6.7 6.8 6.8 6.8 6.8 6.8 6.8
Wind_Speed
24 27 30 32 33 33 5 3 0 2 4 2 2 2 1 2 2 1 2 3 5 7 3 3 2 3 1 3 4 5 2 4 5 1 1 3 1 2 4 3 4 1 2 0
23 26 29 31 32 27 4 4 2 1 3 2 2 1 1 2 3 3 2 2 1 2 4 3 3 2 1 3 2 5 6 3 5 4 4 1 4 5 3 4 2 5 3 3
21 23 27 30 32 27 2 3 1 3 3 2 2 1 1 2 1 1 1 3 2 3 2 2 4 4 2 1 1 6 2 3 2 2 3 4 4 9 10 4 3 4 7 2
19 22 25 28 32 28 3 4 2 1 2 3 2 1 0 1 1 1 1 2 3 3 3 2 3 3 4 2 4 2 1 3 1 2 3 2 2 6 12 9 9 6 0 7
16 19 22 26 31 25 3 3 3 3 2 3 3 1 2 1 1 2 1 3 4 3 3 2 6 6 4 3 3 2 1 3 1 1 1 5 5 10 11 16 17 16 16 19
12 16 19 21 24 18 4 3 1 1 3 3 3 2 2 2 2 1 1 4 4 3 2 0 1 3 3 3 7 4 3 5 2 1 1 3 8 16 18 11 10 15 12 11
11 11 15 17 17 13 2 3 2 2 2 3 1 2 2 2 1 1 1 1 3 3 8 9 8 8 7 5 4 3 6 5 1 0 2 4 3 2 4 19 9 16 11 13
11 9 11 13 13 11 3 2 2 2 3 4 4 4 4 5 2 3 2 1 2 7 2 3 4 3 3 3 3 2 2 4 2 2 3 8 3 4 6 8 7 16 16 15
11 10 11 10 11 6 2 1 2 2 3 0 3 4 4 2 2 2 1 2 2 2 1 2 4 4 4 4 4 4 3 2 3 2 3 4 3 3 6 5 4 5 7 6
10 11 11 10 10 5 1 1 2 1 3 3 3 3 3 2 2 2 1 3 3 1 2 3 3 3 2 6 7 5 4 4 9 7 5 6 7 3 5 4 4 1 2 3
11 11 11 8 11 8 2 2 1 1 2 7 4 2 4 4 3 3 2 4 2 2 6 3 3 4 5 4 5 6 9 7 4 5 5 8 5 5 4 4 2 2 2 2
10 12 14 12 11 10 4 2 1 1 3 5 5 11 13 12 12 4 3 4 2 5 4 3 3 3 4 5 4 4 6 6 4 8 4 1 3 3 4 3 3 2 1 2
9 14 14 14 10 11 5 2 2 1 2 7 7 6 8 11 16 12 4 3 3 2 2 3 2 3 4 5 5 7 7 7 3 3 5 12 5 5 1 1 2 2 3 3
11 15 12 11 8 12 5 2 3 2 2 4 4 1 4 6 10 15 17 11 4 7 3 3 3 3 3 2 1 4 2 9 9 7 7 3 4 3 1 2 3 7 6 5
13 16 13 10 14 8 2 4 5 6 3 3 7 13 9 7 14 15 16 14 8 3 3 3 4 2 3 2 1 4 6 6 6 5 3 5 5 5 2 3 5 7 8 5
15 10 13 14 10 11 1 2 1 5 2 2 4 4 4 3 7 12 10 7 4 3 3 2 2 2 4 4 3 4 9 5 3 2 2 2 4 3 5 3 7 9 7 6
9 12 11 13 12 1 2 2 1 7 4 2 4 5 3 1 5 5 5 8 4 4 3 4 4 3 5 2 4 4 6 6 5 2 2 3 3 0 5 8 8 8 6 4
10 13 15 11 3 3 2 2 8 9 2 1 3 4 3 7 3 3 5 3 5 4 3 1 2 3 3 4 11 5 6 5 4 4 1 3 5 7 6 6 6 7 7 5
8 12 10 0 1 1 1 2 7 5 2 2 2 3 2 3 3 1 3 3 2 2 3 3 3 3 5 6 7 9 8 4 4 1 4 6 5 6 6 6 6 6 6 6
6 2 1 1 1 5 6 3 2 3 3 3 3 2 3 1 2 0 2 2 2 3 3 4 3 4 8 1 2 5 6 5 4 1 2 2 4 5 7 7 7 8 9 5
1 1 1 1 4 1 2 2 3 3 3 4 3 4 3 1 0 2 1 1 1 2 2 3 2 3 2 5 6 5 4 2 2 2 4 5 7 8 9 9 8 9 9 9
1 1 1 1 1 2 3 3 2 3 2 2 2 1 2 2 2 1 1 1 0 1 2 2 3 1 4 5 5 4 2 1 1 1 3 4 5 5 7 7 8 7 7 6
1 1 1 2 2 4 4 3 2 2 1 2 2 2 1 1 2 2 1 2 1 1 2 3 2 3 4 4 4 4 3 2 2 1 2 3 5 5 5 5 6 7 4 2
1 1 4 3 3 4 2 2 1 2 2 3 2 2 2 1 0 1 2 1 1 2 3 3 1 6 6 4 3 4 3 2 2 3 3 4 5 5 4 5 5 5 5 3
2 2 4 4 1 2 2 2 2 1 2 2 2 2 1 1 1 1 1 3 3 4 3 1 2 7 7 6 5 5 3 2 2 3 4 5 6 5 5 6 6 5 4 3
1 3 3 3 2 2 1 1 2 1 2 2 1 2 2 2 1 3 4 2 4 2 2 2 6 8 7 6 4 4 3 1 1 2 3 4 5 5 5 5 7 6 6 4
3 3 3 2 3 3 2 1 1 2 1 1 2 3 2 1 2 3 3 4 2 2 1 4 7 8 8 6 5 4 3 1 1 1 3 4 4 3 5 7 8 7 6 4
Wind_Direction
354 351 352 351 353 348 25 324 313 132 172 39 37 54 25 332 337 349 95 102 101 158 145 123 130 144 40 141 156 144 110 108 146 143 64 314 251 201 199 227 179 122 327 62
354 354 352 352 354 357 324 344 298 132 261 93 83 116 36 329 14 30 40 87 31 156 153 142 135 128 19 169 190 161 169 134 130 163 191 177 211 190 164 93 49 203 226 124
353 356 354 352 353 354 325 329 311 4 58 29 78 52 78 155 174 75 39 109 123 133 115 43 143 129 75 209 89 71 99 119 267 188 87 115 186 193 191 173 190 189 233 315
354 355 356 355 354 353 301 11 39 5 347 66 77 163 4 318 197 56 43 132 164 155 138 127 144 144 131 100 123 74 60 108 76 76 90 142 213 202 197 206 211 215 323 236
356 359 359 358 358 352 61 22 357 346 296 294 234 122 98 43 121 282 163 176 142 163 157 204 188 166 194 177 169 122 36 115 127 152 169 228 250 233 219 223 234 247 261 280
354 359 0 3 7 9 29 10 345 307 296 297 240 133 114 80 322 140 302 155 142 140 104 178 342 163 190 185 176 147 137 141 156 244 32 280 264 232 213 210 210 222 226 235
344 355 0 1 12 25 352 2 309 314 287 294 328 339 329 245 194 216 330 261 204 113 120 114 100 97 101 125 106 140 146 123 103 212 210 236 68 126 215 216 223 219 248 256
338 341 348 358 2 17 19 355 344 356 292 307 296 330 292 292 257 193 163 82 30 159 186 125 137 144 162 96 78 158 188 145 133 253 244 303 237 179 157 179 225 221 232 256
326 333 322 341 357 18 31 351 305 331 310 228 330 302 291 296 223 179 144 97 128 139 213 169 205 181 172 174 140 51 127 185 212 154 251 250 60 145 190 225 166 145 207 251
318 321 330 327 334 360 32 302 360 294 279 274 261 254 287 294 273 264 155 161 168 293 165 194 201 210 208 176 183 169 169 184 214 221 249 276 248 171 164 225 122 13 249 288
325 326 321 332 315 304 196 305 233 337 286 279 261 261 252 303 266 242 82 162 177 149 201 201 188 227 198 191 184 178 185 188 185 196 224 253 161 137 216 91 116 290 297 288
319 322 318 331 323 307 175 261 176 179 229 278 247 255 257 250 258 292 290 319 211 181 185 202 157 181 184 196 207 190 206 207 185 210 225 337 213 311 125 33 326 292 216 215
309 313 315 306 320 299 251 228 173 172 273 275 259 260 249 252 238 225 245 258 308 222 290 158 159 209 177 187 218 188 219 200 237 192 230 240 228 238 247 227 247 342 290 262
301 316 330 320 316 310 306 203 178 193 270 277 286 282 227 240 217 211 221 252 343 326 241 209 173 204 203 201 6 234 197 162 214 241 255 250 269 218 123 154 319 314 298 245
303 308 321 322 319 309 303 240 212 206 213 279 289 300 281 289 232 212 217 230 245 295 254 213 184 131 172 128 237 235 190 196 201 230 212 230 150 129 10 300 317 316 305 272
303 309 313 319 339 313 285 285 197 210 181 273 286 307 263 333 193 184 182 208 189 242 269 186 184 164 199 189 225 239 207 218 239 214 164 254 301 312 148 339 317 305 288 262
324 324 325 317 308 192 210 286 109 165 157 257 293 293 258 187 144 182 202 181 205 213 241 206 164 187 193 221 236 199 199 205 180 153 164 242 212 199 299 303 300 288 280 265
321 321 320 316 306 132 256 217 159 157 230 242 276 272 280 186 160 148 156 157 200 238 160 241 160 135 206 247 234 207 170 175 208 192 83 308 306 293 286 302 299 270 258 246
312 319 309 64 85 219 255 243 189 164 248 280 258 284 320 179 162 217 152 228 166 248 219 170 163 173 221 231 203 190 175 190 151 177 294 282 263 288 297 304 297 263 261 250
334 345 308 259 26 315 313 130 197 203 192 215 257 267 265 287 145 138 138 126 175 166 199 132 215 243 242 189 125 153 152 156 151 228 276 289 287 303 313 303 291 281 269 249
52 50 267 324 322 270 234 244 223 182 225 202 237 240 285 21 48 105 10 146 143 196 153 221 230 259 149 134 103 92 102 158 185 247 277 276 281 296 304 303 299 287 270 250
166 128 339 294 264 232 254 238 208 229 267 183 251 299 294 315 327 103 160 132 231 213 117 230 252 120 128 138 119 108 117 99 32 294 291 296 295 299 295 305 312 307 284 261
103 116 253 214 213 240 229 218 206 246 326 7 322 301 303 296 18 75 100 218 166 130 214 238 242 134 136 127 137 118 80 77 92 89 351 326 310 315 327 329 340 343 351 21
109 196 252 213 208 238 236 289 330 357 311 328 303 287 324 334 14 168 186 131 165 234 235 244 178 173 152 136 137 141 99 65 60 39 16 355 345 344 356 359 357 0 14 21
177 188 235 230 320 276 297 304 299 317 303 310 311 294 283 288 216 212 94 194 234 224 238 237 168 155 150 148 136 119 109 74 48 21 16 6 0 3 11 12 6 9 6 9
168 233 248 238 287 266 257 259 281 311 316 289 243 278 251 246 225 198 216 223 232 245 217 164 147 157 158 152 149 149 148 127 32 20 9 2 6 3 353 360 14 3 354 350
214 244 242 260 286 254 259 269 279 332 296 303 309 235 232 351 215 226 201 218 233 229 199 169 167 162 166 155 147 155 165 172 15 25 33 16 357 7 21 14 358 352 354 341